AO-73
1 39444U 13066AE 19339.44871371 .00000213 00000-0 32481-4 0 9998
2 39444 97.5579 345.5013 0057793 189.0665 170.9511 14.82021592325070
SPROUT
1 39770U 14029E 19339.55973142 .00000591 00000-0 71228-4 0 9992
2 39770 97.8914 81.8339 0007927 245.2885 114.7477 14.87528819300082
DUCHIFAT-1
1 40021U 14033M 19339.36936403 .00000267 00000-0 33011-4 0 9994
2 40021 97.9310 264.5635 0012082 205.5911 154.4710 14.90754045296823
NANOSATCBR1
1 40024U 14033Q 19339.35215932 .00000277 00000-0 34727-4 0 9999
2 40024 97.9185 261.5169 0011348 209.5863 150.4713 14.89948273296701
EO-79
1 40025U 14033R 19339.45053448 .00000218 00000-0 29146-4 0 9997
2 40025 97.9088 258.8595 0011450 216.1705 143.8738 14.89032359296587
DTUSAT-2
1 40030U 14033W 19339.49343805 .00000175 00000-0 24814-4 0 9995
2 40030 97.8990 256.7635 0010999 211.1559 148.9007 14.88617426296516
EO-80
1 40032U 14033Y 19339.50538743 .00000195 00000-0 26999-4 0 9994
2 40032 97.8997 256.7767 0010943 211.9155 148.1400 14.88563037296506
ANTELSAT
1 40034U 14033AA 19339.39970740 .00000148 00000-0 29426-4 0 9996
2 40034 97.7356 199.1479 0057307 268.8884 90.5760 14.74173206293675
VELOX-1
1 40057U 14034E 19339.84004977 .00000255 00000-0 43204-4 0 9991
2 40057 98.2560 106.8180 0011783 53.4824 306.7467 14.77759894292892
DAURIA DX 1
1 40071U 14037C 19339.71144074 .00000078 00000-0 17567-4 0 9995
2 40071 98.4443 142.4999 0009337 46.0949 314.1037 14.81314401292423
UKUBE-1
1 40074U 14037F 19339.73515937 .00000265 00000-0 38978-4 0 9997
2 40074 98.4493 151.5338 0005643 38.5922 321.5707 14.84148775292879
HODOYOSHI-1
1 40299U 14070B 19339.77021587 .00000455 00000-0 21940-4 0 9992
2 40299 97.3367 55.8914 0013380 157.1091 317.6898 15.23539752282165
CHUBUSAT-1
1 40300U 14070C 19339.72906328 .00000546 00000-0 26616-4 0 9991
2 40300 97.3124 49.4779 0019840 173.8072 301.5153 15.22276451281885
QSAT-EOS
1 40301U 14070D 19339.79251951 .00001355 00000-0 54407-4 0 9992
2 40301 97.3138 53.5383 0026140 154.1315 320.7731 15.26378506282234
FIREBIRD FU3
1 40377U 15003B 19339.30411516 .00001391 00000-0 58165-4 0 9999
2 40377 99.1178 354.4207 0124621 245.0922 113.7313 15.19371017267675
FIREBIRD FU4
1 40378U 15003C 19339.75123644 .00001382 00000-0 57766-4 0 9997
2 40378 99.1181 355.0464 0124837 243.4717 115.3670 15.19385067267747
GRIFEX
1 40379U 15003D 19339.72520171 .00001100 00000-0 50804-4 0 9995
2 40379 99.1217 348.0445 0133121 265.0938 93.5081 15.15909280267344
NO-84
1 40654U 15025D 19339.36355855 .00006520 00000 0 87338-4 0 8003
2 40654 54.9862 117.2716 0130585 44.1367 317.0006 15.50100549138736
DEORBITSAIL
1 40719U 15032E 19339.45161843 .00000350 00000-0 56953-4 0 9999
2 40719 97.8892 227.6414 0017420 115.3972 244.9043 14.76857651237316
NUDT-PHONESAT
1 40900U 15049B 19339.81372861 .00001710 00000-0 74854-4 0 9994
2 40900 97.4361 347.5225 0011532 313.6358 171.2172 15.23357682233555
XW-2A
1 40903U 15049E 19339.72942708 .00001377 00000-0 33848-4 0 9997
2 40903 97.3167 23.2969 0011720 246.9536 232.6467 15.42389248236454
XW-2C
1 40906U 15049H 19339.72948722 .00000619 00000-0 35810-4 0 9991
2 40906 97.4725 339.0525 0014104 335.9839 138.9559 15.15849403232751
XW-2D
1 40907U 15049J 19339.42557975 .00000547 00000-0 31879-4 0 9996
2 40907 97.4712 338.4378 0013485 334.2712 163.8981 15.16052483232728
LILACSAT-2
1 40908U 15049K 19339.74732900 .00000513 00000-0 31919-4 0 9993
2 40908 97.4847 337.3760 0015321 340.6541 193.1454 15.13908192232537
XW-2E
1 40909U 15049L 19339.72586126 .00000845 00000-0 44747-4 0 9990
2 40909 97.4617 341.8647 0012648 326.5205 143.4910 15.18063694232984
XW-2F
1 40910U 15049M 19339.81398528 .00000913 00000-0 48733-4 0 9994
2 40910 97.4656 341.0872 0013790 323.7596 159.8294 15.17576275232813
XW-2B
1 40911U 15049N 19339.72595488 .00000625 00000-0 35972-4 0 9990
2 40911 97.4719 339.4104 0013381 334.1532 140.9623 15.15982347232664
DCBB
1 40912U 15049P 19339.79149150 .00000827 00000-0 41636-4 0 9997
2 40912 97.4500 344.9725 0013432 302.6262 230.9678 15.19922301233142
TW-1C
1 40926U 15051B 19339.80240549 .00011106 00000-0 14154-3 0 9997
2 40926 97.1149 25.9308 0008871 97.3666 12.8862 15.59436995236635
TW-1A
1 40928U 15051D 19339.87163515 .00001935 00000-0 47848-4 0 9999
2 40928 97.1303 7.3427 0011096 165.4115 320.3798 15.41620328235386
IO-86
1 40931U 15052B 19337.59853776 .00000317 00000-0 -44920-4 0 9998
2 40931 5.9991 299.1110 0012413 7.6203 352.6160 14.76621820226116
LQSat
1 40958U 15057A 19339.44599799 .00000028 00000-0 11923-4 0 9995
2 40958 97.8806 43.8849 0019329 59.0842 301.2263 14.73099212223792
AO-85
1 40967U 15058D 19339.31902140 .00000019 00000 0 21320-4 0 8956
2 40967 64.7762 3.2944 0179640 146.2912 214.9768 14.76038276132775
ATHENOXAT-1
1 41168U 15077C 19339.84020250 .00001688 00000-0 53341-4 0 9999
2 41168 14.9891 48.8518 0011496 300.4253 59.4932 15.13961544219807
ChubuSat-2
1 41338U 16012B 19339.49310663 .00000236 00000-0 11587-4 0 9993
2 41338 31.0019 145.6133 0013859 344.4487 15.5721 15.00216200208433
ChubuSat-3
1 41339U 16012C 19339.84214951 .00000191 00000-0 80330-5 0 9999
2 41339 31.0105 141.2710 0013877 355.4792 4.5717 15.00386682208484
Horyu-4
1 41340U 16012D 19339.51091001 .00000345 00000-0 19479-4 0 9990
2 41340 31.0039 133.1227 0013954 13.0571 347.0424 15.01370446208553
OUFTI-1
1 41458U 16025C 19339.21605033 .00002261 00000-0 11676-3 0 9996
2 41458 98.1006 74.6971 0166088 146.6382 214.5444 15.06277514198089
e-st@r-II
1 41459U 16025D 19339.73943641 .00002415 00000-0 12510-3 0 9993
2 41459 98.1001 74.8054 0167636 146.6246 214.5681 15.05891941198132
AAUSAT4
1 41460U 16025E 19339.76041496 .00002338 00000-0 11859-3 0 9994
2 41460 98.0957 76.5225 0156804 137.4918 223.8592 15.07950917198293
LO-87
1 41557U 16033B 19339.79111428 .00000866 00000-0 34768-4 0 9995
2 41557 97.4130 66.2860 0015080 60.6420 299.6323 15.27578345196050
NuSat2
1 41558U 16033C 19339.80924236 .00000993 00000-0 37310-4 0 9994
2 41558 97.4166 67.9126 0014101 60.0716 300.1923 15.29508969196138
Lapan A3
1 41603U 16040E 19339.85314958 -.00000027 00000-0 18708-5 0 9992
2 41603 97.3387 34.1540 0013887 157.4440 315.6187 15.19771737191585
Swayam
1 41607U 16040J 19339.38678076 .00001138 00000-0 50192-4 0 9993
2 41607 97.3458 38.1127 0014211 148.6129 211.5959 15.23710314191716
Pratham
1 41783U 16059A 19339.41952263 .00000039 00000-0 16785-4 0 9994
2 41783 98.0465 35.0578 0033011 208.1910 151.7506 14.63024513170365
AlSat 1N
1 41789U 16059G 19339.80979887 .00000085 00000-0 25058-4 0 9998
2 41789 98.0482 37.8100 0028032 195.2138 164.8211 14.64281212170546
ScatSat
1 41790U 16059H 19339.71500276 .00000014 00000-0 14473-4 0 9993
2 41790 98.1886 20.5140 0005931 148.0745 212.0808 14.50896488168988
TY-1
1 41844U 16066D 19339.84957355 .00000704 00000-0 31480-4 0 9992
2 41844 97.4053 345.2361 0013885 314.4881 166.5056 15.24530415170613
Pegasus-1
1 41846U 16066F 19339.35549512 .00000250 00000-0 47199-4 0 9992
2 41846 98.6911 22.0847 0368297 93.9241 270.4125 14.37662442160934
CAS-2T
1 41847U 16066G 19339.38731445 .00000057 00000-0 18193-4 0 9991
2 41847 98.6846 22.6336 0366884 89.9730 274.3489 14.38024897161382
EO-88
1 42017U 17008BX 19339.43229221 .00001118 00000-0 46352-4 0 9995
2 42017 97.3854 44.6368 0004692 297.6237 62.4524 15.25951154155800
nSIGHT1
1 42726U 98067MF 19339.75631748 .00035837 00000-0 18604-3 0 9995
2 42726 51.6306 154.0712 0003795 144.1324 215.9933 15.80628904144629
